Regional Weather Roundup
Issued by NWS

Home | Current Version | Previous Version | Text Only | Print | Product List | Glossary Off
Versions: 1 2 3 4 5 6 7 8 9 10 11 12 13 14 15 16 17 18 19 20 21 22 23 24 25 26 27 28 29 30 31 32 33 34 35 36 37 38 39 40 41 42 43 44 45 46 47 48 49 50

000
ASUS43 KFSD 051710
RWRSD

WEATHER ROUNDUP FOR SOUTH DAKOTA
NATIONAL WEATHER SERVICE SIOUX FALLS SD
1200 PM CDT SUN JUL 05 2015

NOTE: "FAIR" INDICATES FEW OR NO CLOUDS BELOW 12,000 FEET WITH NO
SIGNIFICANT WEATHER AND/OR OBSTRUCTIONS TO VISIBILITY.


SDZ001>005-009-010-012>017-051800-
NORTHWEST AND NORTH CENTRAL SOUTH DAKOTA

CITY           SKY/WX    TMP DP  RH WIND       PRES   REMARKS
BUFFALO          N/A     76  60  57 N16G23    29.82R
FAITH            N/A     68  65  90 NE17G29   29.83R
MOBRIDGE       CLOUDY    75  72  90 N13       29.81R
$$

SDZ012>016-024>037-041>051-057-063-072>074-051800-
SOUTHWEST AND SOUTH CENTRAL SOUTH DAKOTA

CITY           SKY/WX    TMP DP  RH WIND       PRES   REMARKS
RAPID CTY ARPT PTSUNNY   78  63  59 NE15      29.85R
PIERRE         PTSUNNY   83  69  62 NE3       29.77R
CUSTER         CLOUDY    81  59  47 NE6       29.97R
ELLSWORTH AFB  PTSUNNY   78  63  58 NE12      29.86R
PHILIP         MOSUNNY   84  69  60 NE18      29.77F
PINE RIDGE     PTSUNNY   87  68  52 SW8       29.79S
SPEARFISH      FAIR      73  63  68 N12       29.95R
WINNER         FAIR      90  66  45 S15       29.75F
$$

SDZ004>011-016>023-039-040-051800-
NORTHEAST SOUTH DAKOTA

CITY           SKY/WX    TMP DP  RH WIND       PRES   REMARKS
ABERDEEN       SUNNY     83  70  64 S15       29.76R
WATERTOWN      MOSUNNY   83  65  54 S21G33    29.78F
BROOKINGS      MOSUNNY   81  66  61 S24       29.81S
SISSETON         N/A     86  65  49 SW12G23   29.76R
$$

SDZ017-020-022-023-036>040-048>070-051800-
SOUTHEAST SOUTH DAKOTA

CITY           SKY/WX    TMP DP  RH WIND       PRES   REMARKS
SIOUX FALLS    MOSUNNY   82  69  64 S12G23    29.81F
HURON          SUNNY     85  71  63 S13       29.75S
CHAMBERLAIN    MOSUNNY   82  71  67 S15       29.76S
MITCHELL       SUNNY     85  69  58 S21G29    29.77S
YANKTON        SUNNY     84  66  54 S16       29.77F
$$

ABBREVIATIONS USED IN REMARKS
   TC - TEMPERATURE IN CELSIUS
  WCI - WIND CHILL INDEX
   HX - HEAT INDEX
  VSB - VISIBILITY




USA.gov is the U.S. government's official web portal to all federal, state and local government web resources and services.